Location: Coopersdale
(40.3556°N, 78.9372°W)
Time: 09:25:11
(UTC+00:00)

Envisat - Pass Details

Date: 27 November 2020
Orbit: 764 x 766 km, 98.1° (Epoch: 15 January)

Event Time Altitude Azimuth Distance (km) Brightness Sun altitude
Rises 22:22:29 0° 168° (SSE) 3,217 6.4 -6.2°
Reaches altitude 10° 22:24:46 10° 170° (S) 2,295 5.6 -6.6°
Maximum altitude 22:29:50 81° 256° (WSW) 781 3.2 -7.5°
Drops below altitude 10° 22:34:57 10° 345° (NNW) 2,312 5.4 -8.4°
Sets 22:37:16 0° 347° (NNW) 3,242 6.2 -8.9°
